Lid_Strength_Index
1 1 2 1 1 1 2 2 4 7 6 3 3 0 -0 -0 -0 -0 -0 1 2 2 3 3 2 2 1 1 1 0 0 0 1 -0 -1 -0 0 0
1 1 1 1 1 1 1 2 2 4 6 3 2 1 0 -0 -1 -0 0 1 2 2 3 3 3 2 2 2 1 1 1 1 0 0 -0 -0 -0 -1
1 1 2 1 2 1 1 1 2 3 4 3 2 1 1 1 0 1 -0 1 2 2 3 4 4 3 3 3 2 2 1 1 1 1 1 0 -1 -1
2 2 2 1 2 1 1 2 2 2 3 4 2 2 1 1 0 0 0 0 1 3 4 4 4 4 4 4 3 3 3 3 2 2 1 1 -0 -1
1 1 2 1 2 2 2 2 2 2 2 3 3 2 1 1 1 1 2 2 2 3 4 4 4 4 4 4 4 4 4 4 5 3 2 1 0 0
1 1 1 1 2 2 2 2 2 2 2 3 3 3 2 2 1 2 3 2 3 2 3 3 4 4 5 4 4 4 5 6 5 5 4 4 3 2
1 1 1 1 2 1 1 2 2 2 3 3 3 3 3 3 3 3 4 4 3 2 3 2 2 2 3 3 3 3 5 6 6 6 5 5 5 4
2 1 1 3 4 5 4 3 2 2 3 3 3 4 4 3 3 3 4 5 5 2 3 3 2 2 2 2 4 6 7 7 6 5 5 6 6 6
2 1 1 1 1 1 6 5 5 5 3 1 3 3 3 3 3 4 3 3 4 3 3 4 2 3 3 4 6 7 8 7 6 6 6 6 6 7
1 1 1 1 1 1 1 1 1 1 1 1 1 2 2 2 2 2 3 3 3 3 3 5 3 4 5 4 7 7 7 7 6 6 6 6 7 7
2 2 1 1 7 7 1 2 3 4 7 7 6 7 8 7 4 2 4 4 5 4 4 5 5 5 4 4 6 6 6 6 6 6 6 6 7 8
1 2 8 4 8 7 1 2 3 3 2 3 4 6 5 6 6 3 3 4 5 5 4 5 4 4 5 3 3 5 5 6 6 7 7 7 8 7
2 2 4 10 9 8 5 2 4 3 4 2 3 3 3 2 3 2 2 3 4 5 4 3 3 3 3 3 2 2 3 3 5 6 8 8 8 8
2 3 6 11 10 9 6 10 9 5 3 3 3 4 4 3 3 3 3 3 2 2 3 3 3 2 3 3 3 1 2 2 3 3 4 6 8 9
2 9 11 11 11 10 10 10 7 3 4 4 4 4 3 3 3 3 3 2 1 1 2 1 1 1 2 2 3 3 2 1 1 3 2 3 5 7
8 5 7 8 7 7 6 5 3 3 4 4 4 3 3 3 3 3 3 2 2 1 0 -0 0 0 2 2 2 2 2 3 2 1 1 1 2 3
5 4 4 4 5 4 3 3 3 3 3 3 4 4 3 3 2 1 1 1 3 3 2 1 0 1 0 1 3 2 2 2 2 2 3 3 2 2
3 4 4 4 4 4 4 3 3 3 3 3 3 3 3 2 2 1 1 2 3 2 2 1 2 2 2 1 2 2 2 2 2 1 1 2 2 2
2 3 3 3 2 2 2 2 3 2 1 2 2 2 2 2 3 2 2 2 2 2 2 2 2 2 4 5 2 4 2 1 1 2 2 2 2 1
2 2 2 2 2 2 2 2 2 1 1 1 1 1 1 2 2 2 2 2 2 2 2 2 2 2 3 4 3 1 8 2 2 2 2 2 3 5
2 2 2 2 2 1 1 1 1 1 1 1 1 1 1 2 2 2 2 5 4 2 3 3 2 7 1 1 3 3 1 10 4 1 2 2 2 2
1 2 1 1 1 1 1 1 1 2 1 1 1 1 1 1 2 2 2 2 2 2 2 2 1 1 2 2 3 3 2 2 7 9 7 5 3 4
1 1 1 1 1 1 1 1 1 1 1 1 1 1 1 2 1 1 2 2 2 2 2 2 2 2 2 2 5 3 3 2 2 2 2 9 9 9